Terminal Aerodrome Forecast
Issued by NWS

Home | Current Version | Previous Version | Text Only | Print | Product List | Glossary On
Versions: 1 2 3 4 5 6 7 8 9 10 11 12 13 14 15 16 17 18 19 20 21 22 23 24 25 26 27 28 29 30 31 32 33 34 35 36 37 38 39 40
000
FTUS45 KBOU 301126
TAFAPA
TAF
KAPA 301126Z 3012/3112 27008KT P6SM FEW150 SCT220
     FM301400 35007KT P6SM FEW220
     FM301700 VRB05KT P6SM FEW100 SCT180
     FM301900 07011KT P6SM FEW090 SCT150
     FM302200 10012KT P6SM SCT090 BKN140
     FM310100 16012KT P6SM BKN090 BKN140
     FM310400 19010KT P6SM FEW100 SCT150=

USA.gov is the U.S. government's official web portal to all federal, state and local government web resources and services.